User: anonymous   Login
Location: Boiro
(42.6475°N, 8.8834°W)
Time: 09:56:54
(UTC+02:00)
Language:

RAPIDEYE 2 - Orbit

View from above orbital plane
View from above orbital plane
View from above satellite
View from above satellite

Ground track
Ground track

The orbit data is extracted from the following two-line orbital elements,

1 33312U 08040A   22176.91265690  .00001319  00000-0  12024-3 0  9996
2 33312  97.5949 235.7711 0013454  72.2399 288.0290 14.96729866748165
Epoch (UTC): 25 June 2022 21:54:13
Eccentricity: 0.0013454
inclination: 97.5949°
perigee height: 567 km
apogee height: 586 km
right ascension of ascending node: 235.7711°
argument of perigee: 72.2399°
revolutions per day: 14.96729866
mean anomaly at epoch: 288.0290°
orbit number at epoch: 74816

The dashed part of the orbit path shows where the satellite is in the earth's shadow,  

DLR